Regional Weather Roundup
Issued by NWS

Home | Current Version | Previous Version | Text Only | Print | Product List | Glossary Off
Versions: 1 2 3 4 5 6 7 8 9 10 11 12 13 14 15 16 17 18 19 20 21 22 23 24 25 26 27 28 29 30 31 32 33 34 35 36 37 38 39 40 41 42 43 44 45 46 47 48 49 50

000
ASUS45 KSLC 040710
RWRUT

UTAH REGIONAL WEATHER ROUNDUP
NATIONAL WEATHER SERVICE SALT LAKE CITY UT
1200 AM MST WED MAR 04 2015

UTZ001>011-023>025-040800-

NORTHERN UTAH

CITY           SKY/WX    TMP DP  RH WIND       PRES   REMARKS
BRIGHAM CITY   MOCLDY    26  19  75 CALM      30.02S
HILL AFB       CLOUDY    27  19  72 E6        30.00R WCI  20
LOGAN          CLOUDY    28  19  69 S5        30.00R WCI  23
OGDEN          CLOUDY    29  23  78 S7        30.00R WCI  22
PROVO AIRPORT  CLEAR     28  21  74 CALM      30.02S
SALT LAKE CITY PTCLDY    30  25  81 SE7       30.01S WCI  23
VERNAL         MOCLDY    24  10  55 S5        29.90R WCI  18
WENDOVER       CLEAR     28  14  54 S3        30.03S
HEBER CITY     PTCLDY    18  12  79 E3        29.97S
WEST JORDAN    CLOUDY    27  25  93 SW6       30.02R WCI  20

$$

UTZ012>022-026-027-040800-

SOUTHERN/CENTRAL UTAH

CITY           SKY/WX    TMP DP  RH WIND       PRES   REMARKS
BLANDING       CLOUDY    29  29  98 N5        29.94F WCI  24
BRYCE CANYON   PTCLDY     9   4  80 NW14      29.91S WCI  -7
CEDAR CITY     CLEAR     17  11  77 N7        29.98R WCI   8
DELTA          CLEAR     28  22  79 CALM      30.02S
HANKSVILLE     CLEAR     32  18  55 N7        29.96R WCI  26
MILFORD        CLEAR     15  12  88 W5        30.01R WCI   8
MOAB/CYNLANDS  CLEAR     31  20  63 W13       29.90R WCI  21
PRICE          PTCLDY    26  11  52 NW16G24   29.90F WCI  14
ST GEORGE      MOSUNNY   39  27  60 S7        30.02R WCI  34
KANAB          CLEAR     32  21  64 N12       29.99R WCI  23

$$

REGIONAL REPORTS     COLORADO/ARIZONA

CITY           SKY/WX    TMP DP  RH WIND       PRES   REMARKS
CRAIG, CO      CLOUDY    22  10  60 W10       29.92R WCI  11
GRAND JUNCTION FOG       28  28 100 NW7       29.89R VSB 1/2 WCI  21
RIFLE          CLOUDY    30  26  85 W8        29.87R WCI  22
MONTROSE       CLOUDY    28  26  92 E3        29.89R
CORTEZ         MOCLDY    26  24  92 NE6       29.87F WCI  19
PAGE, AZ       CLOUDY    39  25  57 W8        29.91S WCI  33
GRAND CANYON   CLOUDY    26  25  96 W3        29.91F
KINGMAN        PTCLDY    36  33  89 CALM      29.95S
FLAGSTAFF      NOT AVBL

$$

REGIONAL REPORTS    NEVADA/IDAHO/WYOMING

CITY           SKY/WX    TMP DP  RH WIND       PRES   REMARKS
LAS VEGAS, NV  CLOUDY    50  22  33 E10       29.95R
ELY            MOCLDY    10   7  87 S8        30.03S WCI  -2
ELKO           CLEAR     18  13  80 W3        30.07R
POCATELLO, ID  PTCLDY    25  15  66 SW13      30.00R WCI  14
BURLEY         CLEAR     28  11  48 SW10      30.00R WCI  19
EVANSTON, WY   MOCLDY    10   5  80 SW8       29.91S WCI  -2
ROCK SPRINGS   PTCLDY    -1  -5  82 E13       29.91R WCI -19

$$


USA.gov is the U.S. government's official web portal to all federal, state and local government web resources and services.